Volver al catálogo

ATLAS 5 CENTAUR DEB

ActivoHEO
NORAD 43994·DEBRIS·🇺🇸 United States

Lanzado Sep 17, 2014 desde Cape Canaveral Space Force Station

Loading…

Próximos Pases (próximas 24 horas)

TLE

ActualizadoSource: Space-Track

Época: Sep 7, 2026, 11:54 UTC

1 43994U 14055AZ  26250.49584446 -.00000044  00000-0  00000-0 0  9992
2 43994  19.4459 171.3724 4596078 118.3273 295.1704  1.80957371 52312

Sigue ATLAS 5 CENTAUR DEB en tiempo real con AllMySat

Download on the App Store